Location: Jihlava
(49.4000°N, 15.5830°E)
Time: 02:46:50
(UTC+02:00)

ISS - Visible Passes

Search period start: 21 May 2024 00:00
Search period end: 31 May 2024 00:00
Orbit: 409 x 414 km, 51.6° (Epoch: 20 May)

Date Brightness Start Highest point End Pass type
(mag) Time Alt. Az. Time Alt. Az. Time Alt. Az.
21 May -3.8 22:35:08 10° WNW 22:38:27 69° SSW 22:40:02 28° SE visible
22 May -1.1 00:12:33 10° W 00:12:49 11° WSW 00:12:49 11° WSW visible
22 May -3.8 21:45:07 10° WNW 21:48:28 88° NNE 21:51:45 10° ESE visible
22 May -2.3 23:22:04 10° W 23:24:31 24° SW 23:24:31 24° SW visible
23 May -3.0 22:31:48 10° W 22:34:54 36° SSW 22:36:13 25° SSE visible
24 May -3.5 21:41:36 10° WNW 21:44:52 54° SSW 21:47:53 12° SE visible
24 May -1.3 23:19:40 10° WSW 23:20:39 12° SW 23:20:39 12° SW visible
25 May -1.9 22:28:36 10° W 22:30:59 18° SW 22:32:19 15° S visible
26 May -2.4 21:38:02 10° W 21:40:57 28° SW 21:43:49 10° SSE visible
28 May -1.4 21:34:49 10° WSW 21:36:39 14° SW 21:38:28 10° S visible
